Flag for Germany Weather past 2 weeks in Filderstadt, Baden-Württemberg, Germany

Now
35 °F

Light rain. Low clouds.


Feels Like: 33 °F
Forecast: 8 / 33 °F
Wind: 3 mph from South

Location: Stuttgart-Echterdingen

Current Time: Dec 27, 2014 at 6:28:30 PM

Latest Report: Dec 27, 2014 at 6:00 PM


Visibility: 28 mi

Pressure: 29.44 "Hg

Humidity: 89%

Dew point: 32 °F

Location of FilderstadtLocation

Historic Weather in Filderstadt — Graph

°F

Filderstadt temperature yesterday

Maximum temperature yesterday: 38 °F (at 2:00 PM)
Minimum temperature yesterday: 32 °F (at 11:00 PM)
Average temperature yesterday: 35 °F

Past Weeks' High & Low Weather Summary

 TemperatureHumidityPressure
High54 °F (Dec 23, 1:00 PM)98% (Dec 16, 6:00 AM)30.56 "Hg (Dec 16, 6:00 AM)
Low28 °F (Dec 27, 2:00 AM)38% (Dec 23, 3:00 PM)29.44 "Hg (Dec 27, 5:00 PM)
Average43 °F80%30.14 "Hg
* Reported Dec 12 5:00 PM — Dec 27 5:00 PM, Filderstadt, Weather by CustomWeather, © 2014

Note: Actual official high and low records may vary slightly from our data, if they occured in-between our weather recording intervals... More about our weather records

Advertising

Filderstadt weather history for previous 24 hours

 ConditionsComfort  
Time TempWeatherWind HumidityBarometerVisibility
5:00 PM
Dec 27
35 °FLight rain. Low clouds.5 mph89%29.44 "Hg22 mi
3:00 PM36 °FLow clouds.3 mph87%29.47 "Hg31 mi
2:00 PM35 °FScattered clouds.2 mph90%29.47 "Hg10 mi
1:00 PM32 °FLight snow. Low clouds.3 mph96%29.50 "Hg2 mi
12:00 PM32 °FLight snow. Low clouds.5 mph94%29.54 "Hg2 mi
11:00 AM32 °FLight snow. Low clouds.5 mph96%29.59 "Hg2 mi
9:00 AM31 °FLight snow. Low clouds.3 mph96%29.68 "Hg1 mi
8:00 AM31 °FSnow. Low clouds.5 mph96%29.74 "Hg1 mi
7:00 AM33 °FLight snow. Overcast.5 mph84%29.82 "Hg2 mi
6:00 AM31 °FOvercast.2 mph89%29.89 "Hg12 mi
5:00 AM32 °FOvercast.3 mph86%29.96 "Hg9 mi
3:00 AM30 °FFog.1 mph96%30.12 "Hg7 mi
2:00 AM28 °FFog.1 mph96%30.18 "Hg0 mi
1:00 AM31 °FFog.1 mph96%30.21 "Hg2 mi
12:00 AM32 °FPassing clouds.2 mph94%30.25 "Hg6 mi
11:00 PM
Dec 26
32 °FOvercast.1 mph92%30.28 "Hg9 mi
9:00 PM34 °FOvercast.1 mph87%30.35 "Hg12 mi
8:00 PM33 °FPassing clouds.1 mph90%30.37 "Hg12 mi
7:00 PM34 °FOvercast.2 mph92%30.37 "Hg12 mi
6:00 PM34 °FOvercast.2 mph91%30.39 "Hg16 mi
Weather by CustomWeather, © 2014

See weather overviewHow to use our weather pages